Wind_Speed
20 21 22 23 24 25 25 26 27 29 30 29 30 30 31 33 33 35 36 37 38 37 37 38 39 39 39 39 38 38 38 38 39 39 40 40 39 39 38 38 37 37 37 37
19 20 21 21 22 23 24 25 27 28 29 29 29 29 30 32 33 34 35 36 38 37 37 38 38 39 39 39 39 39 39 39 39 40 40 40 40 40 40 40 39 39 38 38
19 19 19 20 21 22 23 24 25 27 27 27 28 28 29 31 32 33 34 35 36 36 36 36 38 38 38 39 39 40 40 40 40 40 41 41 41 41 42 42 41 42 41 40
19 19 19 20 20 21 22 22 23 25 25 25 26 28 28 29 31 32 32 33 34 35 37 36 37 38 39 39 39 40 40 40 39 39 40 41 41 42 42 43 43 43 44 43
19 19 19 19 19 20 21 21 21 23 24 24 24 26 26 28 29 31 32 33 34 35 36 37 38 38 39 39 39 40 41 40 39 39 40 41 42 43 43 44 44 44 44 45
18 18 18 17 17 18 19 20 21 21 23 24 24 26 26 27 29 30 31 32 33 34 36 38 39 39 40 40 39 40 40 39 40 40 41 42 43 44 45 45 46 45 45 46
16 16 17 16 16 17 18 19 19 20 22 22 23 25 26 27 28 28 29 31 33 35 34 36 39 38 39 39 40 39 40 40 41 41 41 42 44 45 45 46 47 47 47 47
15 16 16 16 15 16 17 17 18 20 21 21 20 22 22 24 25 27 28 29 30 34 35 36 38 39 39 39 39 39 40 42 42 42 42 43 44 46 46 47 47 48 48 48
16 16 15 15 15 15 15 16 16 19 21 21 21 20 21 21 23 25 26 27 29 31 34 35 37 38 38 39 39 39 42 43 44 44 45 45 45 46 47 47 48 48 48 49
16 16 15 15 15 14 15 15 16 17 19 20 20 19 20 21 23 24 25 26 28 29 31 33 35 36 37 38 38 39 41 42 43 44 45 46 46 45 45 46 47 48 48 49
16 16 16 16 16 15 15 16 16 17 18 19 20 19 19 21 22 22 22 24 26 28 29 30 32 34 36 37 37 38 39 41 43 44 44 45 46 46 46 46 47 48 49 49
16 17 17 17 17 16 16 16 17 17 17 18 19 19 19 20 21 21 21 23 23 25 26 29 31 33 34 36 37 38 40 42 43 45 46 47 47 47 47 47 47 48 49 49
17 18 18 18 18 17 17 16 17 18 19 19 20 19 18 19 20 21 22 23 25 25 26 28 30 32 34 35 36 38 40 42 43 44 46 46 47 47 47 47 48 48 48 48
18 18 19 19 19 18 18 18 19 19 20 20 19 19 19 20 22 22 23 23 24 25 27 28 29 31 33 35 36 38 39 41 43 44 45 45 46 47 47 47 46 46 46 47
18 19 19 20 20 20 20 20 20 21 22 22 21 20 20 22 22 24 24 25 25 26 26 27 29 31 34 36 37 38 39 40 41 42 43 44 44 44 45 45 44 44 44 44
19 19 20 20 20 21 20 20 21 22 22 22 22 22 22 23 23 24 26 27 26 26 27 28 30 31 33 35 37 38 40 40 41 42 43 43 43 44 44 44 43 41 42 42
19 19 19 19 20 21 21 20 21 22 22 23 23 22 23 24 25 25 27 28 29 28 29 30 31 31 33 34 35 37 38 40 42 42 41 41 41 41 42 43 42 41 41 42
20 20 20 20 20 22 21 20 20 21 22 23 23 24 24 25 26 26 27 28 30 30 30 30 32 33 34 35 36 37 38 38 39 39 39 39 39 40 40 40 41 42 41 41
20 20 21 21 21 21 21 20 20 21 21 22 23 24 24 25 25 26 27 28 29 30 31 31 32 34 35 35 36 37 38 37 37 37 37 37 37 37 38 38 39 39 39 39
21 21 21 21 22 22 21 20 21 21 21 21 23 23 24 25 26 26 27 28 29 31 31 31 32 33 34 34 35 35 37 37 36 35 35 35 35 35 36 36 36 36 37 38
21 21 21 21 22 22 21 21 21 21 22 22 23 24 25 26 26 26 27 28 29 30 31 31 32 32 32 32 32 33 33 33 33 33 33 34 34 34 35 35 35 35 36 37
21 22 22 21 22 21 21 22 22 22 23 24 25 26 26 27 27 27 28 29 29 29 30 31 31 31 30 30 31 31 31 32 32 32 32 33 34 34 35 35 35 35 35 35
21 22 22 22 22 23 22 22 23 24 24 25 26 27 27 27 28 29 29 29 30 30 30 30 29 29 29 29 29 29 30 30 31 31 31 31 32 32 33 33 33 33 33 33
20 22 23 23 23 23 23 23 24 25 25 25 26 27 27 28 28 29 29 29 29 29 29 29 28 28 29 29 28 29 29 29 29 29 30 30 30 31 32 32 32 32 31 31
20 21 22 22 22 23 23 24 24 25 25 26 26 27 27 27 27 27 28 28 27 27 27 27 27 27 28 28 28 28 28 28 28 28 28 28 29 29 29 30 30 31 30 30
20 21 21 21 22 23 24 24 25 25 26 27 27 27 27 27 27 27 27 27 27 27 26 26 26 27 27 28 28 28 28 28 28 27 26 26 27 27 28 28 28 28 28 28
Wind_Direction
269 267 266 265 262 259 254 253 251 250 250 247 247 245 241 239 239 239 238 237 237 237 238 239 239 240 241 243 244 245 248 251 252 252 252 253 253 254 255 256 258 261 263 262
270 269 269 267 264 259 255 254 252 250 248 247 246 245 241 239 239 239 238 237 237 238 237 239 240 241 242 244 246 247 248 250 252 252 252 253 253 253 255 257 259 261 263 263
270 272 271 268 267 259 257 257 254 250 246 248 251 247 241 240 240 240 239 239 240 240 239 239 241 242 243 244 246 248 248 249 251 253 252 253 253 255 256 257 258 261 263 264
271 271 271 269 266 262 259 258 255 248 247 250 250 248 240 242 240 240 239 240 242 242 241 241 243 244 244 245 246 247 249 250 252 253 253 254 255 256 258 259 259 261 263 265
273 271 270 267 265 263 261 259 255 250 250 252 252 252 244 244 242 241 242 242 243 243 244 244 244 245 244 244 246 247 249 251 253 253 254 255 256 258 259 259 260 261 263 264
271 270 269 268 265 264 262 258 255 254 256 254 253 252 246 246 245 245 246 246 247 245 245 243 244 245 245 244 246 247 249 252 254 256 256 257 259 259 260 260 261 261 263 264
270 267 266 266 264 260 259 257 258 259 258 255 252 251 248 248 248 248 250 251 250 247 247 246 244 245 245 245 246 248 251 253 255 256 257 260 261 261 261 262 262 263 263 264
271 265 264 264 262 260 258 259 260 263 262 259 258 255 252 251 250 251 252 254 253 250 249 248 246 245 245 245 247 250 253 254 256 258 259 261 263 262 262 263 264 263 263 263
272 267 265 261 261 261 258 258 260 264 262 263 264 262 255 254 255 253 253 254 253 251 252 251 248 245 245 246 249 251 254 256 258 260 262 263 264 264 264 264 265 265 263 263
271 267 266 261 256 256 257 258 261 263 265 266 266 264 264 258 258 258 257 257 256 253 253 252 249 245 247 249 251 254 256 257 259 262 263 264 264 264 265 266 266 266 265 264
269 266 263 261 256 255 258 257 260 262 264 269 269 266 267 266 263 261 259 258 256 254 254 254 251 249 250 252 254 258 258 259 262 264 265 266 266 266 266 266 267 267 267 266
267 265 263 259 257 258 259 259 259 262 266 267 271 274 271 267 265 263 264 264 263 261 259 256 254 253 254 256 257 260 262 264 265 266 266 266 267 268 268 268 269 269 268 267
264 262 263 259 256 258 261 261 261 262 265 266 269 275 272 268 267 266 267 267 266 265 263 262 261 260 261 261 262 264 265 267 267 267 267 268 268 269 269 269 269 269 269 268
264 262 260 262 260 259 260 261 263 265 267 269 270 271 268 267 268 270 271 270 268 267 265 264 265 264 265 266 267 268 270 270 269 269 270 270 270 269 270 270 269 269 268 267
265 265 261 260 261 261 261 262 264 266 269 271 271 270 267 269 269 271 273 273 271 269 266 265 267 268 270 271 271 272 272 272 271 272 272 272 271 270 269 270 269 269 268 267
266 266 263 261 261 263 261 261 264 266 269 271 271 270 270 272 272 273 273 274 274 272 269 271 273 274 274 273 273 275 274 274 273 274 274 273 272 271 270 270 268 268 267 266
265 266 263 262 261 262 261 264 265 267 269 271 273 275 276 275 275 275 275 276 276 275 273 272 275 278 279 276 276 277 277 276 275 275 274 273 272 271 270 269 268 267 267 265
262 263 264 263 261 261 262 263 266 267 270 274 276 277 278 279 278 279 279 278 278 279 277 277 278 280 282 281 280 279 280 277 275 274 273 274 274 272 270 268 268 267 267 266
258 260 263 264 264 264 265 267 268 270 271 275 278 280 282 282 283 283 284 283 282 281 282 282 282 282 283 283 284 284 283 281 276 275 275 276 275 273 271 270 269 268 267 266
255 257 261 265 267 269 269 271 273 274 275 278 280 282 283 285 286 286 285 285 284 283 284 285 284 284 285 285 286 287 286 283 280 277 277 278 276 274 273 272 271 270 268 266
255 256 260 264 267 269 272 275 277 278 280 282 282 283 284 287 289 288 287 287 287 286 286 286 286 286 286 287 287 289 288 285 282 280 280 280 278 275 274 271 269 270 271 269
257 257 259 262 265 269 273 276 278 280 282 283 284 286 287 287 289 290 288 287 287 288 287 287 287 287 288 288 289 290 291 289 284 282 282 281 280 278 275 272 272 273 273 271
257 258 261 262 265 269 272 276 279 281 283 284 285 286 287 287 288 288 289 288 288 288 288 287 286 286 287 289 290 291 292 291 287 284 283 283 281 279 277 276 275 275 273 270
259 259 261 264 266 269 272 275 278 281 283 284 285 286 287 288 289 288 289 289 290 290 288 286 286 286 287 289 289 291 292 292 291 288 285 283 281 280 278 277 277 275 272 268
263 263 265 268 270 272 274 276 278 280 283 285 286 287 288 289 290 290 291 291 291 291 289 287 287 286 286 287 288 289 291 292 291 289 287 284 282 280 278 277 277 274 271 268
263 265 267 270 273 274 275 276 278 280 283 285 286 288 289 290 290 290 291 292 291 291 289 287 287 286 286 286 287 287 288 290 290 288 288 286 284 283 281 278 275 273 269 267
Height
5706 5706 5705 5705 5705 5706 5706 5706 5707 5708 5709 5710 5712 5715 5717 5718 5721 5724 5727 5730 5734 5738 5741 5744 5747 5750 5754 5756 5759 5762 5764 5766 5767 5769 5771 5772 5774 5775 5776 5776 5777 5777 5777 5777
5701 5701 5701 5699 5699 5699 5700 5700 5701 5702 5703 5704 5706 5708 5710 5711 5714 5717 5719 5723 5726 5729 5732 5735 5738 5741 5744 5748 5750 5753 5755 5757 5758 5760 5761 5763 5764 5766 5767 5767 5768 5768 5768 5768
5696 5697 5695 5694 5693 5694 5694 5695 5696 5696 5697 5698 5700 5702 5704 5705 5707 5709 5712 5715 5717 5720 5724 5727 5730 5732 5735 5738 5741 5744 5746 5748 5749 5750 5752 5753 5755 5756 5757 5758 5758 5759 5758 5758
5690 5690 5690 5689 5688 5688 5689 5690 5690 5691 5692 5693 5694 5694 5698 5699 5700 5702 5705 5707 5709 5712 5715 5718 5721 5723 5726 5729 5732 5734 5737 5738 5740 5741 5742 5744 5745 5747 5748 5748 5748 5748 5748 5748
5685 5685 5684 5684 5684 5684 5684 5685 5685 5686 5686 5687 5688 5688 5692 5692 5693 5695 5698 5700 5702 5704 5706 5709 5711 5714 5717 5720 5722 5725 5727 5729 5730 5731 5733 5734 5735 5736 5737 5737 5738 5738 5738 5737
5679 5679 5679 5679 5679 5680 5680 5681 5681 5681 5681 5682 5683 5683 5684 5686 5687 5689 5690 5691 5693 5695 5697 5699 5702 5704 5707 5710 5713 5715 5717 5719 5720 5722 5722 5723 5724 5725 5725 5726 5726 5727 5727 5726
5675 5675 5674 5675 5675 5675 5675 5676 5676 5676 5675 5676 5677 5676 5678 5679 5681 5682 5683 5684 5685 5686 5688 5689 5692 5694 5698 5700 5703 5705 5707 5709 5710 5711 5712 5712 5713 5713 5713 5714 5714 5714 5714 5715
5670 5671 5670 5670 5671 5671 5671 5672 5672 5672 5671 5671 5671 5670 5673 5673 5674 5675 5676 5676 5676 5677 5679 5680 5682 5685 5688 5691 5693 5696 5698 5699 5700 5700 5700 5701 5701 5701 5701 5701 5701 5702 5702 5702
5665 5666 5666 5666 5666 5667 5667 5667 5668 5667 5666 5666 5666 5666 5667 5668 5668 5668 5669 5669 5669 5670 5670 5672 5674 5676 5679 5682 5684 5686 5687 5688 5689 5689 5689 5689 5689 5689 5689 5688 5688 5688 5689 5689
5661 5661 5661 5661 5662 5662 5663 5663 5663 5662 5661 5661 5662 5662 5663 5662 5662 5663 5663 5663 5663 5663 5664 5664 5665 5667 5670 5672 5674 5675 5676 5677 5677 5677 5677 5677 5676 5676 5675 5675 5675 5675 5675 5675
5656 5657 5657 5657 5657 5658 5659 5659 5658 5658 5658 5657 5657 5660 5658 5657 5657 5657 5658 5658 5657 5657 5657 5658 5658 5659 5661 5663 5664 5665 5665 5666 5666 5665 5665 5664 5664 5663 5662 5661 5661 5661 5661 5661
5652 5652 5652 5653 5653 5653 5654 5654 5654 5655 5654 5653 5652 5656 5653 5652 5652 5652 5652 5652 5651 5651 5651 5650 5650 5652 5653 5654 5655 5655 5655 5654 5654 5653 5652 5651 5651 5650 5649 5648 5648 5647 5647 5646
5647 5647 5647 5648 5650 5650 5649 5649 5649 5649 5649 5648 5648 5651 5648 5647 5647 5646 5646 5646 5645 5645 5645 5644 5644 5644 5644 5645 5645 5645 5644 5643 5641 5640 5639 5638 5637 5637 5635 5635 5634 5633 5632 5632
5641 5642 5644 5644 5643 5644 5644 5645 5644 5644 5644 5644 5644 5644 5643 5641 5641 5641 5641 5640 5639 5638 5638 5637 5636 5636 5636 5635 5634 5634 5632 5631 5629 5628 5627 5625 5624 5623 5622 5621 5620 5619 5619 5619
5635 5636 5637 5637 5638 5638 5639 5639 5639 5639 5639 5639 5639 5638 5638 5636 5635 5635 5634 5633 5632 5631 5630 5629 5629 5628 5627 5626 5624 5623 5621 5619 5617 5616 5614 5612 5611 5609 5608 5607 5606 5606 5606 5606
5630 5630 5631 5632 5632 5632 5633 5633 5633 5633 5633 5632 5632 5632 5631 5630 5629 5628 5627 5626 5625 5624 5622 5621 5620 5619 5618 5616 5614 5613 5610 5608 5605 5603 5601 5599 5597 5596 5595 5594 5594 5593 5594 5593
5624 5625 5625 5626 5626 5626 5627 5629 5628 5628 5627 5627 5626 5627 5625 5624 5622 5621 5620 5618 5617 5616 5614 5613 5611 5610 5608 5606 5604 5602 5599 5596 5594 5591 5588 5586 5584 5583 5582 5582 5582 5581 5581 5581
5618 5619 5619 5620 5621 5620 5625 5623 5622 5622 5621 5621 5620 5619 5618 5617 5615 5614 5612 5610 5609 5607 5606 5604 5602 5600 5598 5595 5593 5591 5588 5585 5582 5580 5577 5575 5573 5571 5570 5569 5569 5569 5569 5569
5612 5613 5613 5613 5613 5614 5617 5617 5616 5616 5616 5615 5613 5612 5611 5609 5608 5607 5604 5602 5600 5599 5597 5595 5593 5591 5588 5585 5583 5580 5577 5574 5571 5569 5566 5564 5562 5560 5559 5558 5557 5557 5557 5557
5605 5606 5607 5607 5607 5608 5612 5611 5610 5610 5609 5608 5606 5605 5604 5602 5601 5600 5596 5594 5592 5590 5588 5586 5584 5581 5579 5576 5573 5570 5567 5564 5561 5558 5556 5554 5551 5550 5548 5547 5547 5546 5546 5545
5598 5599 5600 5600 5600 5601 5604 5604 5603 5604 5603 5601 5599 5597 5596 5594 5593 5591 5588 5585 5583 5581 5579 5576 5574 5572 5570 5567 5564 5561 5558 5555 5552 5549 5547 5544 5542 5540 5539 5538 5537 5536 5535 5535
5591 5592 5593 5593 5594 5597 5597 5596 5596 5596 5594 5592 5591 5589 5588 5586 5584 5582 5579 5577 5575 5572 5570 5567 5565 5563 5560 5558 5555 5552 5549 5546 5543 5540 5538 5535 5533 5531 5529 5528 5527 5526 5525 5525
5585 5586 5586 5588 5590 5589 5588 5588 5588 5587 5586 5584 5583 5581 5579 5577 5575 5573 5570 5568 5565 5563 5560 5558 5556 5554 5552 5549 5546 5544 5541 5537 5534 5531 5528 5526 5523 5521 5520 5518 5517 5516 5516 5515
5578 5579 5579 5580 5581 5581 5580 5580 5580 5579 5578 5576 5574 5573 5571 5569 5567 5564 5562 5559 5556 5554 5551 5549 5547 5545 5543 5540 5538 5535 5532 5529 5526 5523 5520 5517 5515 5512 5510 5509 5508 5507 5506 5506
5571 5571 5571 5572 5573 5573 5573 5572 5571 5570 5569 5567 5566 5564 5562 5560 5558 5556 5553 5551 5548 5545 5542 5540 5538 5536 5534 5532 5529 5526 5524 5521 5518 5514 5512 5509 5506 5504 5502 5500 5499 5498 5497 5497
5565 5565 5565 5565 5565 5565 5565 5564 5563 5562 5561 5559 5557 5555 5553 5551 5549 5547 5545 5542 5539 5537 5534 5532 5529 5527 5525 5523 5521 5518 5515 5512 5509 5506 5504 5501 5498 5496 5494 5492 5490 5489 5488 5488